Weather in Kangiqsujuaq

Canada     61°35′51″N   71°57′24″W
temp.,
°C
wind,
m/s
gust,
m/s
humid.,
%
clouds,
%
prec.,
mm/h
press.,
hPa
HPBL,
m
12 may, wed
wed1223:00−4sw3290100 0.0 101821
02:00−5ssw3391100 0.0 101731
05:00−3ssw3891100 0.0 1016231
08:00−1ssw41183100 0.0 1015604
11:000ssw61089100 0.0 1014639
14:00+1ssw5894100 0.0 1013382
17:00+1sw4692100 0.0 1014148
20:000sw2286100 0.0 101423
13 may, thu
thu1323:00−3wnw229191 0.0 101515
02:00−4w229699 0.3 101734
05:00−6w229173 0.3 101828
08:00−6wnw228482 0.0 1020116
11:00−4nw227860 0.0 1021401
14:00−3nnw237794 0.0 1022627
17:00−3n347597 0.0 1023734
20:00−6nw11868 0.0 102415
14 may, fri
fri1423:00−11w329038 0.0 102516
02:00−12wsw32905 0.0 102419
05:00−13wsw33845 0.0 102525
08:00−9wsw22738 0.0 102472
11:00−5wsw226620 0.0 1024225
14:00−3wsw236045 0.0 1024350
17:00−3wsw227119 0.0 1024103
20:00−8w228282 0.0 102513
15 may, sat
sat1523:00−8w2282100 0.0 102518
02:00−9wnw228399 0.0 102514
05:00−9nw228999 0.0 102617
08:00−5n2389100 0.0 1026204
11:00−4ne4592100 0.5 1026523
14:00−3ne5594100 1.3 1025551
17:00−4nne6795100 1.1 1025490
20:00−5n4796100 2.8 1025401
16 may, sun
sun1623:00−5n3796100 2.1 1024326
02:00−6nnw3496100 3.2 1024163
05:00−7nnw349594 0.4 1024121
08:00−7nw239073 0.4 1025176
11:00−5nnw2283100 0.0 1024314
14:00−4n227857 0.0 1024430
17:00−3n117937 0.0 1025375
20:00−7nnw11895 0.0 102511